Location: Dobrzeń Wielki
(50.7693°N, 17.8414°E)
Time: 06:13:09
(UTC+01:00)

Envisat - Pass Details

Date: 30 October 2019
Orbit: 764 x 766 km, 98.1° (Epoch: 19 November)

Event Time Altitude Azimuth Distance (km) Brightness Sun altitude
Rises 18:59:33 0° 206° (SSW) 3,223 6.5 -24.4°
Reaches altitude 10° 19:02:25 10° 222° (SW) 2,302 5.9 -24.9°
Maximum altitude 19:06:10 21° 270° (W) 1,691 5.5 -25.5°
Drops below altitude 10° 19:09:57 10° 318° (NW) 2,314 6.1 -26.1°
Sets 19:12:51 0° 335° (NNW) 3,245 6.7 -26.5°
